When you browse on this site, cookies collect data to enhance your experience and personalize the content and advertising you see.
Visit our Privacy Policy to learn more. By continuing to use the site, you agree to this use of cookies and data.
  • In Hungary
  • List of Countries
  • For 7 days
  • Water Temperature
  • Satellite Maps
  • Weather Map
  • News
  • Weather Widgets
  • user-avatar
    Login

    Hourly Weather Zastow

    Today, 25 May, Saturday

    Time Temperature Precipitation Wind Pressure Humidity
    00:00 +11°C° 0 mm 1 mps 737 mmHg 91%
    01:00 +10°C° 0 mm 2 mps 736 mmHg 92%
    02:00 +10°C° 0 mm 2 mps 737 mmHg 92%
    03:00 +10°C° 0 mm 2 mps 737 mmHg 92%
    04:00 +9°C° 0 mm 2 mps 737 mmHg 92%
    05:00 +12°C° 0 mm 2 mps 737 mmHg 88%
    06:00 +13°C° 0 mm 2 mps 737 mmHg 84%
    07:00 +14°C° 0 mm 3 mps 737 mmHg 77%
    08:00 +17°C° 0 mm 3 mps 737 mmHg 70%
    09:00 +18°C° 0 mm 3 mps 737 mmHg 63%
    10:00 +20°C° 0 mm 3 mps 737 mmHg 56%
    11:00 +20°C° 0 mm 3 mps 737 mmHg 55%
    12:00 +21°C° 0 mm 3 mps 737 mmHg 54%
    13:00 +21°C° 0 mm 3 mps 737 mmHg 54%
    14:00 +21°C° 0.1 mm 3 mps 737 mmHg 57%
    15:00 +21°C° 0.1 mm 3 mps 737 mmHg 59%
    16:00 +21°C° 0.1 mm 3 mps 737 mmHg 62%
    17:00 +20°C° 0.1 mm 3 mps 737 mmHg 67%
    18:00 +18°C° 0.1 mm 2 mps 737 mmHg 72%
    19:00 +18°C° 0.1 mm 1 mps 737 mmHg 77%
    20:00 +16°C° 0 mm 1 mps 737 mmHg 80%
    21:00 +15°C° 0 mm 1 mps 737 mmHg 83%
    22:00 +14°C° 0 mm 1 mps 738 mmHg 85%
    23:00 +13°C° 0 mm 1 mps 738 mmHg 86%

    Tomorrow, 26 May, Sunday

    Time Temperature Precipitation Wind Pressure Humidity
    00:00 +13°C° 0 mm 1 mps 738 mmHg 87%
    01:00 +12°C° 0 mm 1 mps 738 mmHg 88%
    02:00 +12°C° 0 mm 1 mps 738 mmHg 89%
    03:00 +12°C° 0 mm 1 mps 738 mmHg 89%
    04:00 +12°C° 0 mm 1 mps 738 mmHg 90%
    05:00 +13°C° 0 mm 1 mps 738 mmHg 86%
    06:00 +15°C° 0 mm 1 mps 738 mmHg 82%
    07:00 +17°C° 0 mm 2 mps 738 mmHg 78%
    08:00 +18°C° 0 mm 2 mps 738 mmHg 74%
    09:00 +19°C° 0 mm 3 mps 738 mmHg 70%
    10:00 +21°C° 0 mm 3 mps 738 mmHg 67%
    11:00 +21°C° 0.1 mm 3 mps 738 mmHg 64%
    12:00 +22°C° 0.1 mm 3 mps 738 mmHg 62%
    13:00 +23°C° 0.1 mm 4 mps 738 mmHg 60%
    14:00 +22°C° 0.3 mm 3 mps 738 mmHg 62%
    15:00 +22°C° 0.3 mm 3 mps 738 mmHg 63%
    16:00 +22°C° 0.3 mm 3 mps 737 mmHg 65%
    17:00 +21°C° 0.3 mm 3 mps 737 mmHg 71%
    18:00 +19°C° 0.3 mm 2 mps 737 mmHg 76%
    19:00 +18°C° 0.3 mm 2 mps 737 mmHg 81%
    20:00 +17°C° 0 mm 2 mps 737 mmHg 84%
    21:00 +16°C° 0 mm 2 mps 737 mmHg 87%
    22:00 +15°C° 0 mm 2 mps 738 mmHg 90%
    23:00 +15°C° 0 mm 2 mps 737 mmHg 90%

    Day after tomorrow, 27 May, Monday

    Time Temperature Precipitation Wind Pressure Humidity
    00:00 +15°C° 0 mm 2 mps 737 mmHg 91%
    01:00 +14°C° 0 mm 2 mps 737 mmHg 91%
    02:00 +14°C° 0 mm 2 mps 737 mmHg 91%
    03:00 +14°C° 0 mm 2 mps 737 mmHg 90%
    04:00 +13°C° 0 mm 2 mps 737 mmHg 90%
    05:00 +15°C° 0 mm 2 mps 737 mmHg 87%
    06:00 +17°C° 0 mm 2 mps 737 mmHg 84%
    07:00 +19°C° 0 mm 2 mps 737 mmHg 81%
    08:00 +20°C° 0.4 mm 3 mps 737 mmHg 76%
    09:00 +22°C° 0.4 mm 3 mps 737 mmHg 71%
    10:00 +23°C° 0.4 mm 4 mps 737 mmHg 66%
    11:00 +25°C° 0.3 mm 4 mps 737 mmHg 64%
    12:00 +25°C° 0.3 mm 4 mps 737 mmHg 62%
    13:00 +25°C° 0.3 mm 3 mps 736 mmHg 60%
    14:00 +26°C° 0.1 mm 3 mps 736 mmHg 60%
    15:00 +26°C° 0.1 mm 2 mps 736 mmHg 59%
    16:00 +26°C° 0.1 mm 2 mps 735 mmHg 59%
    17:00 +24°C° 0.1 mm 2 mps 735 mmHg 64%
    18:00 +23°C° 0.1 mm 1 mps 735 mmHg 69%
    19:00 +21°C° 0.1 mm 1 mps 735 mmHg 74%
    20:00 +21°C° 0.1 mm 1 mps 735 mmHg 76%
    21:00 +20°C° 0.1 mm 1 mps 735 mmHg 79%
    22:00 +19°C° 0.1 mm 1 mps 735 mmHg 81%
    23:00 +19°C° 0.6 mm 1 mps 734 mmHg 84%

    28 May, Tuesday

    Time Temperature Precipitation Wind Pressure Humidity
    00:00 +18°C° 0.6 mm 1 mps 734 mmHg 88%
    01:00 +18°C° 0.6 mm 1 mps 734 mmHg 91%
    02:00 +18°C° 0.3 mm 1 mps 733 mmHg 92%
    03:00 +16°C° 0.3 mm 1 mps 733 mmHg 94%
    04:00 +16°C° 0.3 mm 2 mps 732 mmHg 95%
    05:00 +17°C° 0 mm 2 mps 732 mmHg 91%
    06:00 +19°C° 0 mm 2 mps 732 mmHg 87%
    07:00 +20°C° 0 mm 3 mps 732 mmHg 83%
    08:00 +21°C° 0 mm 3 mps 732 mmHg 75%
    09:00 +22°C° 0 mm 3 mps 732 mmHg 68%
    10:00 +25°C° 0 mm 3 mps 732 mmHg 60%
    11:00 +25°C° 0 mm 3 mps 731 mmHg 60%
    12:00 +25°C° 0 mm 3 mps 731 mmHg 61%
    13:00 +25°C° 0 mm 3 mps 731 mmHg 61%
    14:00 +25°C° 0.5 mm 2 mps 730 mmHg 62%
    15:00 +25°C° 0.5 mm 2 mps 730 mmHg 63%
    16:00 +25°C° 0.5 mm 1 mps 730 mmHg 64%
    17:00 +23°C° 1.5 mm 2 mps 730 mmHg 70%
    18:00 +21°C° 1.5 mm 2 mps 730 mmHg 75%
    19:00 +19°C° 1.5 mm 2 mps 730 mmHg 81%
    20:00 +18°C° 0.4 mm 3 mps 730 mmHg 86%
    21:00 +17°C° 0.4 mm 4 mps 730 mmHg 90%
    22:00 +14°C° 0.4 mm 4 mps 731 mmHg 94%
    23:00 +13°C° 0 mm 4 mps 731 mmHg 94%

    29 May, Wednesday

    Time Temperature Precipitation Wind Pressure Humidity
    00:00 +12°C° 0 mm 4 mps 731 mmHg 94%
    01:00 +11°C° 0 mm 4 mps 731 mmHg 94%
    02:00 +11°C° 0 mm 3 mps 732 mmHg 93%
    03:00 +11°C° 0 mm 3 mps 732 mmHg 93%
    04:00 +11°C° 0 mm 3 mps 732 mmHg 93%
    05:00 +11°C° 0 mm 3 mps 733 mmHg 92%
    06:00 +11°C° 0 mm 3 mps 733 mmHg 91%
    07:00 +12°C° 0 mm 3 mps 733 mmHg 89%
    08:00 +12°C° 0.1 mm 3 mps 734 mmHg 86%
    09:00 +14°C° 0.1 mm 2 mps 734 mmHg 83%
    10:00 +15°C° 0.1 mm 2 mps 734 mmHg 81%
    11:00 +14°C° 0.9 mm 2 mps 734 mmHg 83%
    12:00 +14°C° 0.9 mm 2 mps 734 mmHg 86%
    13:00 +14°C° 0.9 mm 2 mps 735 mmHg 89%
    14:00 +12°C° 0.9 mm 3 mps 735 mmHg 90%
    15:00 +12°C° 0.9 mm 3 mps 735 mmHg 91%
    16:00 +12°C° 0.9 mm 3 mps 735 mmHg 92%
    17:00 +12°C° 0.7 mm 3 mps 735 mmHg 93%
    18:00 +11°C° 0.7 mm 3 mps 736 mmHg 94%
    19:00 +11°C° 0.7 mm 3 mps 736 mmHg 95%
    20:00 +11°C° 0.6 mm 3 mps 736 mmHg 95%
    21:00 +11°C° 0.6 mm 3 mps 737 mmHg 95%
    22:00 +11°C° 0.6 mm 4 mps 737 mmHg 95%
    23:00 +10°C° 0.4 mm 3 mps 738 mmHg 95%

    30 May, Thursday

    Time Temperature Precipitation Wind Pressure Humidity
    00:00 +10°C° 0.4 mm 3 mps 738 mmHg 95%
    01:00 +10°C° 0.4 mm 3 mps 738 mmHg 95%
    02:00 +10°C° 0.4 mm 3 mps 739 mmHg 96%
    03:00 +10°C° 0.4 mm 3 mps 739 mmHg 96%
    04:00 +10°C° 0.4 mm 3 mps 739 mmHg 96%
    05:00 +11°C° 0.3 mm 4 mps 740 mmHg 94%
    06:00 +10°C° 0.3 mm 5 mps 741 mmHg 93%
    07:00 +10°C° 0.3 mm 6 mps 741 mmHg 91%
    08:00 +11°C° 0.1 mm 6 mps 742 mmHg 87%
    09:00 +12°C° 0.1 mm 5 mps 742 mmHg 84%
    10:00 +12°C° 0.1 mm 5 mps 743 mmHg 80%
    11:00 +14°C° 0 mm 4 mps 743 mmHg 72%
    12:00 +15°C° 0 mm 4 mps 743 mmHg 64%
    13:00 +17°C° 0 mm 4 mps 743 mmHg 56%
    14:00 +17°C° 0 mm 3 mps 743 mmHg 56%
    15:00 +18°C° 0 mm 3 mps 743 mmHg 56%
    16:00 +18°C° 0 mm 3 mps 743 mmHg 55%
    17:00 +16°C° 0 mm 2 mps 743 mmHg 60%
    18:00 +15°C° 0 mm 1 mps 744 mmHg 65%
    19:00 +14°C° 0 mm 1 mps 744 mmHg 71%
    20:00 +12°C° 0 mm 1 mps 744 mmHg 73%
    21:00 +11°C° 0 mm 1 mps 744 mmHg 76%
    22:00 +10°C° 0 mm 1 mps 745 mmHg 79%
    23:00 +10°C° 0 mm 1 mps 745 mmHg 80%
    Show more